Flag for Norway Weather past 2 weeks in Longyearbyen, Svalbard, Norway

Now
43 °F

Passing clouds.


Feels Like: 36 °F
Forecast: 44 / 48 °F
Wind: 13 mph from West

Location: Svalbard Lufthavn

Current Time: Jul 25, 2014 at 9:08:14 AM

Latest Report: Jul 25, 2014 at 8:20 AM


Visibility: N/A

Pressure: 29.89 "Hg

Humidity: 81%

Dew point: 37 °F

Location of LongyearbyenLocation

Historic Weather in Longyearbyen — Graph

°F

Longyearbyen temperature yesterday

Maximum temperature yesterday: 48 °F (at 7:50 AM)
Minimum temperature yesterday: 41 °F (at 11:50 PM)
Average temperature yesterday: 45 °F

Past Weeks' High & Low Weather Summary

 TemperatureHumidityPressure
High52 °F (Jul 15, 6:50 PM)100% (Jul 10, 7:50 AM)30.21 "Hg (Jul 10, 7:50 AM)
Low39 °F (Jul 12, 1:50 AM)58% (Jul 15, 6:50 PM)29.65 "Hg (Jul 24, 12:50 PM)
Average46 °F81%29.98 "Hg
* Reported Jul 10 7:50 AM — Jul 25 7:50 AM, Longyearbyen, Weather by CustomWeather, © 2014

Note: Actual official high and low records may vary slightly from our data, if they occured in-between our weather recording intervals... More about our weather records

Advertising

Longyearbyen weather history for previous 24 hours

 ConditionsComfort  
Time TempWeatherWind HumidityBarometerVisibility
7:50 AM
Jul 25
43 °FBroken clouds.13 mph81%29.86 "HgN/A
6:50 AM41 °FMostly cloudy.14 mph87%29.86 "HgN/A
5:50 AM43 °FBroken clouds.10 mph76%29.86 "HgN/A
4:50 AM41 °FBroken clouds.16 mph81%29.83 "HgN/A
3:50 AM39 °FPartly sunny.15 mph87%29.83 "HgN/A
2:50 AM41 °FDrizzle. Partly sunny.17 mph81%29.80 "HgN/A
1:50 AM41 °FDrizzle. Partly sunny.16 mph81%29.80 "HgN/A
12:50 AM41 °FDrizzle. Broken clouds.16 mph87%29.77 "HgN/A
11:50 PM
Jul 24
41 °FLight rain. Broken clouds.18 mph87%29.77 "HgN/A
10:50 PM43 °FDrizzle. Broken clouds.16 mph87%29.74 "HgN/A
9:50 PM43 °FBroken clouds.15 mph93%29.74 "HgN/A
8:50 PM45 °FPartly sunny.14 mph87%29.71 "HgN/A
7:55 PM45 °FSprinkles. Partly sunny.13 mph87%29.71 "HgN/A
6:50 PM45 °FSprinkles. Partly sunny.15 mph93%29.71 "HgN/A
5:50 PM45 °FSprinkles. Broken clouds.18 mph93%29.68 "HgN/A
4:50 PM46 °FBroken clouds.17 mph87%29.68 "HgN/A
3:50 PM48 °FBroken clouds.9 mph87%29.65 "HgN/A
2:50 PM48 °FBroken clouds.16 mph87%29.65 "HgN/A
1:50 PM46 °FBroken clouds.5 mph93%29.68 "HgN/A
12:50 PM48 °FPartly sunny.6 mph82%29.65 "HgN/A
11:50 AM46 °FPartly sunny.5 mph87%29.68 "HgN/A
10:50 AM46 °FBroken clouds.5 mph82%29.68 "HgN/A
9:50 AM46 °FBroken clouds.9 mph82%29.68 "HgN/A
Weather by CustomWeather, © 2014

See weather overviewHow to use our weather pages